Location: Eureka
(37.8797°N, 107.5651°W)
Time: 13:37:51
(UTC+00:00)

Daily predictions for brighter satellites

Satellite Brightness Start Highest point End
(mag) Time Altitude Azimuth Time Altitude Azimuth Time Altitude Azimuth
OAO 3 Rocket 4.2 12:06:11 34° SSW 12:06:21 34° SSW 12:10:48 10° SE
Cosmos 2034 Rocket 4.1 12:08:28 48° WNW 12:09:01 49° W 12:15:01 10° SSW
USA 238 DEB 3.9 12:10:11 42° NW 12:10:27 42° NW 12:16:51 10° NNE
USA 238 3.9 12:10:14 42° NW 12:10:33 42° NW 12:16:58 10° NNE
BREEZE-M DEB 4.5 12:11:17 18° S 12:12:43 28° SE 12:17:03 10° ENE
Cosmos 1867 3.5 12:13:50 49° NW 12:15:12 67° WSW 12:20:34 10° SSE
Cosmos 2208 Rocket 4.0 12:15:12 41° NW 12:17:01 66° WSW 12:22:18 10° S
USA 215 4.0 12:11:51 10° ESE 12:17:58 45° NE 12:22:26 19° NNW
Iridium 2 3.7 12:14:36 10° S 12:18:22 77° E 12:22:09 10° N
Cosmos 1656 Rocket 3.5 12:21:29 10° SSW 12:26:53 84° WNW 12:32:20 10° NNE
Cosmos 1486 Rocket 3.9 12:25:34 10° SSW 12:30:49 64° WNW 12:36:05 10° NNE
Cosmos 1634 Rocket 3.9 12:24:51 10° N 12:31:06 73° W 12:37:16 10° S
SJ 16-02 3.9 12:27:50 10° SSE 12:31:15 23° E 12:34:40 10° NE
BREEZE-M DEB (TANK) 4.2 12:17:42 20° NW 12:31:32 88° SW 12:36:53 10° SE
Cosmos 1943 Rocket 3.4 12:34:39 22° NW 12:34:39 22° NW 12:37:49 10° N
CZ-2C R/B 2.6 12:27:48 10° SSE 12:33:21 87° WSW 12:38:47 10° NNW
TSX-5 4.4 12:29:20 16° NNW 12:33:59 82° ENE 12:38:27 10° SSE
Tsikada Rocket 4.4 12:28:52 10° SW 12:34:31 37° WNW 12:40:15 10° N
SKYMED 2 3.4 12:34:46 10° S 12:39:06 74° W 12:43:14 11° NNW
Landsat 5 3.6 12:40:52 10° SSE 12:45:23 85° WSW 12:49:54 10° NNW
Genesis I 3.4 12:43:46 31° NW 12:45:28 57° WSW 12:49:25 10° SSE
CZ-4B R/B 4.3 12:46:36 10° N 12:50:53 47° WNW 12:55:10 10° SSW
Cosmos 1812 3.0 12:52:26 17° NNW 12:55:06 43° W 12:58:44 10° SSW
Cosmos 921 Rocket 3.5 12:54:48 18° NW 12:57:42 41° W 13:01:53 10° S
Okean 3 Rocket 3.7 12:53:33 10° SSW 12:57:57 51° W 13:02:23 10° N
Envisat 3.5 12:53:48 10° N 12:58:25 36° WNW 13:03:01 10° SW
NOAA 11 4.2 12:53:12 10° NNE 12:58:43 86° WNW 13:04:12 10° SSW
H-2A R/B 3.5 12:54:51 10° SE 12:58:43 37° ENE 13:02:42 10° N
Cosmos 2098 Rocket 3.6 12:57:52 10° SW 13:01:10 31° WNW 13:05:11 10° NNW
DELTA 2 R/B (1) 3.5 12:57:00 16° W 13:01:26 86° NNW 13:07:00 10° ENE
Cosmos 2180 Rocket 4.4 12:55:26 10° N 13:01:37 87° W 13:07:44 10° S
SJ-7 4.3 12:59:52 10° N 13:04:03 76° WNW 13:08:10 10° SSW
Meteor 2-19 Rocket 4.5 13:00:14 10° S 13:06:17 88° E 13:12:22 10° N
Meteor PRIRODA 3.5 13:04:10 10° N 13:07:47 83° WNW 13:11:25 10° SSW
CZ-3 R/B 3.9 12:59:10 10° SW 13:07:55 21° S 13:12:13 10° SE
Cosmos 1766 Rocket 4.2 13:06:13 10° SW 13:10:06 32° WNW 13:13:59 10° NNW
Meteor 2-6 Rocket 4.2 13:04:54 10° NNW 13:10:10 57° W 13:15:25 10° S
Cosmos 1151 Rocket 3.6 13:07:02 10° NNW 13:11:03 36° W 13:15:02 10° SSW
BREEZE-M DEB (TANK) 4.5 12:59:53 13° WNW 13:11:05 56° NNE 13:14:53 10° E
Meteor 1-31 Rocket 3.8 13:09:35 10° NNW 13:12:46 24° WNW 13:15:56 10° SW
Cosmos 1782 4.5 13:14:09 15° W 13:14:18 15° W 13:16:30 10° WSW
CENTAUR R/B 4.0 13:12:14 13° WNW 13:14:51 16° NNW 13:19:06 10° N
Cosmos 1174 3.6 13:11:57 10° SSW 13:14:55 61° ESE 13:17:53 10° NE
Meteor 2-8 Rocket 4.5 13:10:41 10° NNW 13:16:45 64° W 13:22:45 10° S
Cosmos 1862 4.4 13:15:38 10° SW 13:18:49 23° WNW 13:22:01 10° NNW
ATLAS 5 CENTAUR R/B 1.2 13:17:43 10° SSW 13:21:27 86° ESE 13:25:32 10° NNE
CZ-4B R/B 3.5 13:19:01 10° SE 13:21:55 28° ENE 13:24:47 10° NNE
Cosmos 1354 Rocket 4.3 13:18:37 10° SW 13:23:37 44° WNW 13:28:41 10° N
H-2A R/B 4.5 13:22:56 10° NW 13:24:26 12° WNW 13:25:57 10° W
Cosmos 1328 Rocket 4.1 13:20:46 10° NNW 13:24:47 36° W 13:28:45 10° SSW
ADEOS 3.9 13:20:01 10° N 13:24:55 42° WNW 13:29:47 10° SW
FALCON 9 R/B 3.9 13:05:30 11° W 13:26:22 64° SSW 13:32:12 10° ESE
COSMO-SKYMED 1 3.9 13:24:05 10° SW 13:27:20 21° W 13:30:35 10° NW
Meteor 1-10 Rocket 4.3 13:22:07 10° NNW 13:27:33 56° W 13:32:56 10° S
Cosmos 1833 4.3 13:23:13 10° NNW 13:28:52 66° WSW 13:34:31 10° S
CZ-4C R/B 3.9 13:27:19 10° SSW 13:29:55 24° W 13:32:32 10° NW
CZ-2C R/B 3.1 13:29:34 10° N 13:34:18 50° WNW 13:39:13 10° SSW
SMAP 3.1 13:32:37 10° N 13:37:17 84° WNW 13:41:56 10° SSW
CZ-4B R/B 3.2 13:35:58 10° N 13:39:13 34° WNW 13:42:30 10° SW
ATLAS 3B R/B 2.6 13:34:21 10° SSW 13:40:50 86° WNW 13:47:38 10° NNE
DNEPR-1 R/B 4.4 13:36:00 10° NW 13:40:55 53° WSW 13:46:50 10° SSE
Cosmos 1408 Rocket 4.4 13:41:27 10° SW 13:45:10 28° WNW 13:48:55 10° NNW
Cosmos 2228 Rocket 3.7 13:40:48 10° N 13:45:16 63° E 13:49:45 10° SSE
